EW4781 Weather Reports


time (UTC)temp
C
wind
direction
speed
KPH
gust
KPH
rain 1hr
cm
rain 24hr
cm
rain mn
cm
humidity
%
barometer
mb
20260509091114 7 54 0.0 0.0 0.00 0.00 0.00 85 1027.1
20260509090612 6 54 0.0 0.0 0.00 0.00 0.00 85 1027.3
20260509090109 6 54 0.0 0.0 0.00 0.00 0.00 85 1027.1
20260509085606 6 54 0.0 0.0 0.00 0.00 0.00 84 1027.3
20260509085102 6 54 0.0 0.0 0.00 0.00 0.00 84 1027.3
20260509084559 6 53 0.0 0.0 0.00 0.00 0.00 83 1027.2
20260509084056 6 59 0.0 0.0 0.00 0.00 0.00 82 1027.4
20260509083553 6 60 1.6 1.6 0.00 0.00 0.00 82 1027.4
20260509083050 6 59 0.0 0.0 0.00 0.00 0.00 80 1027.6
20260509082548 6 59 0.0 0.0 0.00 0.00 0.00 78 1027.4
20260509082044 6 60 0.0 0.0 0.00 0.00 0.00 77 1028.1
20260509081542 6 59 0.0 1.6 0.00 0.00 0.00 76 1027.5
20260509081038 6 60 0.0 0.0 0.00 0.00 0.00 77 1027.7
20260509080537 6 59 0.0 1.6 0.00 0.00 0.00 78 1027.7
20260509080035 6 60 0.0 0.0 0.00 0.00 0.00 76 1028.0
20260509075531 6 60 0.0 0.0 0.00 0.00 0.00 75 1027.8
20260509075030 6 60 0.0 0.0 0.00 0.00 0.00 76 1027.6
20260509074526 6 60 0.0 0.0 0.00 0.00 0.00 75 1027.8
20260509074023 6 60 0.0 0.0 0.00 0.00 0.00 73 1027.7
20260509073519 6 59 0.0 0.0 0.00 0.00 0.00 74 1027.7
20260509073016 6 59 0.0 0.0 0.00 0.00 0.00 74 1027.7
20260509072512 6 60 0.0 0.0 0.00 0.00 0.00 74 1027.6
20260509072009 6 60 0.0 0.0 0.00 0.00 0.00 74 1027.8
20260509071506 6 53 0.0 0.0 0.00 0.00 0.00 73 1028.1
20260509071003 7 53 0.0 0.0 0.00 0.00 0.00 73 1028.0
20260509070501 7 53 0.0 0.0 0.00 0.00 0.00 70 1028.3
20260509065956 7 53 0.0 0.0 0.00 0.00 0.00 70 1028.0
20260509065452 7 53 0.0 0.0 0.00 0.00 0.00 71 1028.1
20260509064948 7 53 0.0 0.0 0.00 0.00 0.00 70 1028.0
20260509064446 7 54 0.0 0.0 0.00 0.00 0.00 72 1028.1
20260509063944 7 56 0.0 0.0 0.00 0.00 0.00 73 1028.3
20260509063439 7 56 0.0 0.0 0.00 0.00 0.00 69 1028.4
20260509062936 7 54 0.0 1.6 0.00 0.00 0.00 69 1028.4
20260509062434 7 54 0.0 1.6 0.00 0.00 0.00 68 1028.6
20260509061931 6 54 0.0 0.0 0.00 0.00 0.00 69 1028.6
20260509061428 6 54 0.0 0.0 0.00 0.00 0.00 76 1028.8
20260509060925 6 53 1.6 1.6 0.00 0.00 0.00 74 1028.8
20260509060423 6 54 0.0 0.0 0.00 0.00 0.00 71 1028.8
20260509055918 6 54 0.0 0.0 0.00 0.00 0.00 72 1029.0
20260509055413 7 54 0.0 0.0 0.00 0.00 0.00 73 1029.1
20260509054910 7 54 0.0 1.6 0.00 0.00 0.00 67 1029.1
20260509054407 6 54 0.0 1.6 0.00 0.00 0.00 74 1029.0
20260509053905 6 53 0.0 0.0 0.00 0.00 0.00 76 1029.0
20260509053402 6 53 1.6 1.6 0.00 0.00 0.00 69 1029.1
20260509052901 6 54 0.0 0.0 0.00 0.00 0.00 70 1029.3
20260509052357 6 54 0.0 0.0 0.00 0.00 0.00 70 1029.3
20260509051855 6 54 0.0 0.0 0.00 0.00 0.00 70 1029.1
20260509051353 6 54 0.0 0.0 0.00 0.00 0.00 68 1029.4
20260509050850 6 54 0.0 0.0 0.00 0.00 0.00 70 1029.2
20260509050346 6 54 0.0 0.0 0.00 0.00 0.00 70 1029.4
20260509045843 6 54 0.0 0.0 0.00 0.00 0.00 71 1029.5
20260509045340 6 54 0.0 1.6 0.00 0.00 0.00 73 1029.4
20260509044837 7 54 0.0 0.0 0.00 0.00 0.00 69 1029.5
20260509044335 7 54 0.0 0.0 0.00 0.00 0.00 68 1029.5
20260509043831 7 54 1.6 1.6 0.00 0.00 0.00 68 1029.4
20260509043327 7 54 0.0 0.0 0.00 0.00 0.00 67 1029.6
20260509042823 7 54 1.6 1.6 0.00 0.00 0.00 70 1029.5
20260509042320 7 54 0.0 0.0 0.00 0.00 0.00 70 1029.5
20260509041817 6 54 1.6 1.6 0.00 0.00 0.00 67 1029.5
20260509041314 6 54 0.0 1.6 0.00 0.00 0.00 69 1029.6
20260509040812 6 54 0.0 0.0 0.00 0.00 0.00 69 1029.6
20260509040309 6 54 0.0 0.0 0.00 0.00 0.00 69 1029.7
20260509035806 6 54 0.0 0.0 0.00 0.25 0.25 68 1029.6
20260509035306 6 54 0.0 0.0 0.00 0.25 0.25 69 1029.5
20260509034759 6 54 0.0 0.0 0.00 0.25 0.25 69 1029.7
20260509034257 6 54 0.0 0.0 0.00 0.25 0.25 69 1029.7
20260509033754 6 54 0.0 0.0 0.00 0.25 0.25 68 1029.5
20260509033251 5 54 1.6 1.6 0.00 0.25 0.25 69 1029.7
20260509032748 5 54 1.6 1.6 0.00 0.25 0.25 69 1029.7
20260509032244 6 54 0.0 1.6 0.00 0.25 0.25 69 1029.6
20260509031742 6 54 0.0 0.0 0.00 0.25 0.25 66 1029.9
20260509031240 6 54 0.0 1.6 0.00 0.25 0.25 69 1029.9
20260509030738 6 54 1.6 1.6 0.00 0.25 0.25 69 1029.9
20260509030235 6 54 0.0 0.0 0.00 0.25 0.25 70 1029.7
20260509025732 6 54 0.0 0.0 0.00 0.25 0.25 69 1029.7
20260509025227 6 54 0.0 0.0 0.00 0.25 0.25 69 1030.0
20260509024722 6 54 0.0 0.0 0.00 0.25 0.25 70 1030.0
20260509024218 6 54 1.6 1.6 0.00 0.25 0.25 71 1030.1
20260509023716 6 54 0.0 0.0 0.00 0.25 0.25 70 1030.0
20260509023213 6 54 0.0 0.0 0.00 0.25 0.25 69 1029.9
20260509022709 6 54 0.0 0.0 0.00 0.25 0.25 70 1030.2
20260509022207 6 54 0.0 1.6 0.00 0.25 0.25 70 1029.9
20260509021704 6 54 0.0 1.6 0.00 0.25 0.25 70 1030.0
20260509021201 6 54 0.0 1.6 0.00 0.25 0.25 70 1029.9
20260509020659 6 54 0.0 0.0 0.00 0.25 0.25 70 1030.1
20260509020156 7 54 0.0 0.0 0.00 0.25 0.25 70 1030.0
20260509015654 7 54 0.0 0.0 0.00 0.25 0.25 67 1030.0
20260509015152 7 54 0.0 0.0 0.00 0.25 0.25 65 1030.0
20260509014648 7 54 0.0 0.0 0.00 0.25 0.25 64 1030.0
20260509014145 7 54 0.0 0.0 0.00 0.25 0.25 64 1030.0
20260509013642 7 54 0.0 0.0 0.00 0.25 0.25 61 1030.0
20260509013138 7 54 0.0 1.6 0.00 0.25 0.25 63 1030.0
20260509012634 8 54 0.0 0.0 0.00 0.25 0.25 57 1029.7
20260509012131 8 54 0.0 0.0 0.00 0.25 0.25 54 1029.6
20260509011630 8 54 0.0 0.0 0.00 0.25 0.25 55 1029.7
20260509011126 8 54 0.0 1.6 0.00 0.25 0.25 55 1029.4
20260509010624 8 54 0.0 0.0 0.00 0.25 0.25 56 1029.6
20260509010120 8 54 0.0 1.6 0.00 0.25 0.25 56 1029.6
20260509005618 8 54 0.0 0.0 0.00 0.25 0.25 55 1029.2
20260509005114 8 54 0.0 0.0 0.00 0.25 0.25 54 1029.1
20260509004610 8 54 0.0 0.0 0.00 0.25 0.25 55 1029.3
20260509004107 8 54 0.0 0.0 0.00 0.25 0.25 57 1028.9
20260509003606 8 54 0.0 0.0 0.00 0.25 0.25 58 1029.0
20260509003103 8 54 0.0 0.0 0.00 0.25 0.25 64 1029.2
20260509002600 8 54 0.0 1.6 0.00 0.25 0.25 59 1029.2
20260509002057 9 54 0.0 0.0 0.00 0.25 0.25 58 1029.0
20260509001554 10 53 0.0 0.0 0.00 0.25 0.25 60 1029.0
20260509001050 10 53 0.0 0.0 0.00 0.25 0.25 56 1028.9
20260509000549 10 55 0.0 0.0 0.00 0.25 0.25 55 1029.0
20260509000044 10 56 1.6 1.6 0.00 0.25 0.25 54 1028.7
20260508235542 10 42 0.0 1.6 0.00 0.25 0.25 53 1028.8
20260508235038 10 43 1.6 1.6 0.00 0.25 0.25 50 1028.9
20260508234536 11 39 1.6 1.6 0.00 0.25 0.25 52 1028.7
20260508234033 11 32 0.0 0.0 0.00 0.25 0.25 50 1028.8
20260508233532 11 351 1.6 3.2 0.00 0.25 0.25 47 1028.6
20260508233029 11 311 3.2 3.2 0.00 0.25 0.25 47 1028.7
20260508232526 11 286 6.4 8.0 0.00 0.25 0.25 46 1028.4
20260508232022 12 279 4.8 4.8 0.00 0.25 0.25 45 1028.5
20260508231520 12 339 1.6 1.6 0.00 0.25 0.25 47 1028.4
20260508231017 11 26 1.6 1.6 0.00 0.25 0.25 47 1028.3
20260508230514 12 328 1.6 1.6 0.00 0.25 0.25 48 1028.6
20260508230010 12 301 4.8 4.8 0.00 0.25 0.25 46 1028.6
20260508225508 12 16 1.6 1.6 0.00 0.25 0.25 46 1028.5
20260508225004 12 302 3.2 4.8 0.00 0.25 0.25 46 1028.6
20260508224502 12 8 1.6 1.6 0.00 0.25 0.25 48 1028.7
20260508223959 12 323 4.8 4.8 0.00 0.25 0.25 49 1028.7
20260508223457 12 281 4.8 8.0 0.00 0.25 0.25 46 1028.4
20260508222954 12 247 3.2 3.2 0.00 0.25 0.25 49 1028.6
20260508222451 12 282 4.8 4.8 0.00 0.25 0.25 48 1028.5
20260508221948 12 290 3.2 3.2 0.00 0.25 0.25 48 1028.4
20260508221444 12 301 3.2 3.2 0.00 0.25 0.25 47 1028.4
20260508220940 12 259 3.2 3.2 0.00 0.25 0.25 47 1028.4
20260508220437 13 283 4.8 4.8 0.00 0.25 0.25 47 1028.5
20260508215933 12 47 1.6 1.6 0.00 0.25 0.25 49 1028.4
20260508215430 12 40 3.2 4.8 0.00 0.25 0.25 48 1028.4
20260508214927 12 278 3.2 3.2 0.00 0.25 0.25 50 1028.4
20260508214425 12 304 4.8 4.8 0.00 0.25 0.25 48 1028.4
20260508213920 12 284 3.2 3.2 0.00 0.25 0.25 48 1028.5
20260508213418 12 33 4.8 4.8 0.00 0.25 0.25 48 1028.5
20260508212913 12 327 3.2 3.2 0.00 0.25 0.25 48 1028.6
20260508212410 13 19 3.2 4.8 0.00 0.25 0.25 49 1028.7
20260508211906 13 15 4.8 4.8 0.00 0.25 0.25 48 1028.6
20260508211402 12 272 4.8 4.8 0.00 0.25 0.25 49 1028.4
20260508210900 12 225 4.8 4.8 0.00 0.25 0.25 49 1028.5
20260508210356 12 23 1.6 3.2 0.00 0.25 0.25 51 1028.9
20260508205852 12 301 4.8 4.8 0.00 0.25 0.25 51 1029.0
20260508205349 11 36 1.6 1.6 0.00 0.25 0.25 50 1028.9
20260508204845 11 10 4.8 8.0 0.00 0.25 0.25 52 1028.8
20260508204342 12 32 4.8 4.8 0.00 0.25 0.25 49 1028.8
20260508203838 12 359 3.2 3.2 0.00 0.25 0.25 51 1028.5
20260508203334 12 307 3.2 4.8 0.00 0.25 0.25 49 1029.0
20260508202830 12 287 4.8 4.8 0.00 0.25 0.25 51 1028.8
20260508202328 11 224 4.8 8.0 0.00 0.25 0.25 53 1029.0
20260508201825 11 319 3.2 3.2 0.00 0.25 0.25 56 1029.0
20260508201322 11 270 8.0 11.3 0.00 0.25 0.25 52 1029.0
20260508200818 11 294 6.4 8.0 0.00 0.25 0.25 50 1029.2
20260508200315 12 336 1.6 1.6 0.00 0.25 0.25 48 1029.3
20260508195811 12 354 3.2 4.8 0.00 0.25 0.25 50 1029.3
20260508195308 12 279 4.8 8.0 0.00 0.25 0.25 56 1029.2
20260508194804 11 6 3.2 3.2 0.00 0.25 0.25 51 1029.3
20260508194302 12 40 3.2 3.2 0.00 0.25 0.25 51 1029.4
20260508193759 12 33 1.6 1.6 0.00 0.25 0.25 49 1029.4
20260508193255 12 337 3.2 4.8 0.00 0.25 0.25 50 1029.3
20260508192751 11 8 1.6 3.2 0.00 0.25 0.25 49 1029.5
20260508192248 11 309 3.2 3.2 0.00 0.25 0.25 50 1029.5
20260508191746 11 341 3.2 3.2 0.00 0.25 0.25 54 1029.6
20260508191243 11 334 4.8 4.8 0.00 0.25 0.25 50 1030.1
20260508190740 11 215 6.4 9.7 0.00 0.25 0.25 52 1029.9
20260508190236 11 32 6.4 8.0 0.00 0.25 0.25 54 1029.9
20260508185733 11 247 6.4 8.0 0.00 0.25 0.25 51 1030.0
20260508185230 11 13 6.4 8.0 0.00 0.25 0.25 52 1030.0
20260508184727 10 219 4.8 8.0 0.00 0.25 0.25 58 1029.9
20260508184224 10 291 16.1 22.5 0.00 0.25 0.25 53 1030.0
20260508183721 10 199 4.8 4.8 0.00 0.25 0.25 53 1030.0
20260508183217 11 230 3.2 4.8 0.00 0.25 0.25 64 1030.0
20260508182713 10 164 4.8 4.8 0.00 0.25 0.25 55 1030.1
20260508182210 10 263 8.0 9.7 0.00 0.25 0.25 59 1030.1
20260508181706 10 240 6.4 8.0 0.00 0.25 0.25 59 1030.1
20260508181203 10 293 17.7 20.9 0.00 0.25 0.25 59 1030.4
20260508180700 10 272 14.5 16.1 0.00 0.25 0.25 61 1030.3
20260508180157 10 268 14.5 20.9 0.00 0.25 0.25 60 1030.3
20260508175653 10 55 1.6 1.6 0.00 0.25 0.25 61 1030.3
20260508175150 8 22 1.6 3.2 0.00 0.25 0.25 68 1030.5
20260508174648 7 297 4.8 4.8 0.00 0.25 0.25 68 1030.7
20260508174144 8 238 4.8 8.0 0.00 0.25 0.25 67 1030.5
20260508173641 9 248 3.2 3.2 0.00 0.25 0.25 66 1030.7
20260508173137 8 303 3.2 3.2 0.00 0.25 0.25 69 1030.6
20260508172629 8 284 3.2 3.2 0.00 0.25 0.25 70 1030.7
20260508172125 8 181 4.8 8.0 0.00 0.25 0.25 74 1030.8
20260508171622 8 236 6.4 8.0 0.00 0.25 0.25 71 1030.8
20260508171118 8 212 4.8 9.7 0.00 0.25 0.25 77 1030.9
20260508170616 7 243 4.8 4.8 0.00 0.25 0.25 77 1031.0
20260508170113 7 256 6.4 11.3 0.00 0.25 0.25 80 1030.8
20260508165610 6 278 8.0 9.7 0.00 0.25 0.25 79 1031.2
20260508165107 6 282 9.7 9.7 0.00 0.25 0.25 81 1031.2
20260508164603 6 316 1.6 1.6 0.00 0.25 0.25 82 1031.2
20260508164100 7 1 1.6 1.6 0.00 0.25 0.25 80 1031.2
20260508163557 6 224 3.2 4.8 0.00 0.25 0.25 81 1031.2
20260508163054 6 31 3.2 3.2 0.00 0.25 0.25 83 1031.2
20260508162551 6 257 3.2 3.2 0.00 0.25 0.25 83 1031.3
20260508162048 6 48 1.6 1.6 0.00 0.25 0.25 83 1031.4
20260508161545 6 234 3.2 4.8 0.00 0.25 0.25 83 1031.3
20260508161042 6 224 4.8 4.8 0.00 0.25 0.25 85 1031.2
20260508160541 6 283 3.2 3.2 0.00 0.25 0.25 83 1031.4
20260508160037 5 292 6.4 8.0 0.00 0.25 0.25 88 1031.4
20260508155534 5 36 0.0 0.0 0.00 0.25 0.25 89 1031.4
20260508155031 5 318 4.8 4.8 0.00 0.25 0.25 88 1031.4
20260508154528 5 20 3.2 3.2 0.00 0.25 0.25 89 1031.4
20260508154025 5 16 0.0 1.6 0.00 0.25 0.25 91 1031.3
20260508153522 5 44 1.6 1.6 0.00 0.25 0.25 92 1031.4
20260508153019 5 203 3.2 3.2 0.00 0.25 0.25 94 1031.3
20260508152516 5 170 3.2 3.2 0.00 0.25 0.25 95 1031.3
20260508152011 4 121 0.0 1.6 0.00 0.25 0.25 97 1031.2
20260508151508 4 108 1.6 1.6 0.00 0.25 0.25 97 1031.5
20260508151004 3 115 1.6 3.2 0.00 0.25 0.25 97 1031.2
20260508150502 3 100 0.0 0.0 0.00 0.25 0.25 98 1031.1
20260508145957 3 106 1.6 1.6 0.00 0.25 0.25 98 1031.2
20260508145454 3 126 1.6 1.6 0.00 0.25 0.25 97 1031.3
20260508144950 3 102 1.6 1.6 0.00 0.25 0.25 98 1031.1
20260508144448 3 145 6.4 8.0 0.00 0.25 0.25 97 1031.1
20260508143945 3 110 1.6 1.6 0.00 0.25 0.25 98 1031.1
20260508143443 3 108 1.6 1.6 0.00 0.25 0.25 98 1031.1
20260508142939 3 37 0.0 0.0 0.00 0.25 0.25 99 1031.1
20260508142437 3 143 1.6 3.2 0.00 0.25 0.25 99 1031.0
20260508141933 3 142 0.0 0.0 0.00 0.25 0.25 99 1031.0
20260508141429 2 331 1.6 1.6 0.00 0.25 0.25 99 1030.9
20260508140927 3 88 0.0 0.0 0.00 0.25 0.25 99 1031.0
20260508140424 2 101 0.0 0.0 0.00 0.25 0.25 99 1030.9
20260508135920 2 202 1.6 3.2 0.00 0.25 0.25 99 1030.9
20260508135416 2 22 1.6 3.2 0.00 0.25 0.25 99 1031.3
20260508134913 2 136 0.0 0.0 0.00 0.25 0.25 99 1031.2
20260508134409 2 143 0.0 0.0 0.00 0.25 0.25 99 1031.2
20260508133906 1 104 0.0 0.0 0.00 0.25 0.25 99 1031.0
20260508133404 1 103 1.6 3.2 0.13 0.25 0.25 99 1031.3
20260508132901 1 113 1.6 1.6 0.13 0.25 0.25 99 1031.4
20260508132359 1 183 3.2 3.2 0.18 0.23 0.23 99 1031.2
20260508131855 1 105 1.6 1.6 0.18 0.23 0.23 99 1031.2
20260508131350 1 112 1.6 1.6 0.30 0.23 0.23 99 1031.2
20260508130848 1 187 1.6 1.6 0.13 0.20 0.20 99 1031.5
20260508130344 1 217 0.0 0.0 0.00 0.18 0.18 99 1031.2
20260508125840 1 233 0.0 0.0 0.00 0.18 0.18 99 1031.2
20260508125336 1 240 1.6 1.6 0.00 0.18 0.18 99 1031.2
20260508124835 1 9 0.0 0.0 0.00 0.18 0.18 99 1030.9
20260508124332 1 274 1.6 1.6 0.00 0.18 0.18 98 1030.8
20260508123830 1 242 3.2 3.2 0.00 0.18 0.18 98 1031.1
20260508123328 1 157 1.6 3.2 0.00 0.18 0.18 98 1031.0
20260508122824 1 105 1.6 3.2 0.18 0.18 0.18 97 1030.8
20260508122321 2 64 0.0 1.6 0.18 0.18 0.18 97 1030.7
20260508121818 2 9 1.6 3.2 0.18 0.18 0.18 97 1030.8
20260508121317 2 28 0.0 0.0 0.18 0.15 0.15 97 1030.9
20260508120814 2 56 0.0 0.0 0.18 0.15 0.15 96 1030.6
20260508120312 2 52 0.0 0.0 0.30 0.15 0.15 96 1030.8
20260508115809 2 358 1.6 3.2 0.30 0.13 0.13 96 1030.7
20260508115307 2 85 1.6 1.6 0.18 0.10 0.10 95 1030.5
20260508114803 2 38 0.0 0.0 0.13 0.08 0.08 95 1030.2
20260508114300 2 18 1.6 1.6 0.30 0.08 0.08 94 1030.3
20260508113756 2 332 3.2 3.2 0.30 0.05 0.05 93 1030.2
20260508113254 3 43 0.0 0.0 0.13 0.03 0.03 93 1030.0
20260508112750 3 53 0.0 0.0 0.00 0.00 0.00 92 1030.0
20260508112247 3 55 0.0 0.0 0.00 0.00 0.00 92 1029.6
20260508111743 3 56 0.0 0.0 0.00 0.00 0.00 92 1029.6
20260508111241 3 56 0.0 0.0 0.00 0.00 0.00 92 1029.5
20260508110738 3 56 0.0 0.0 0.00 0.00 0.00 92 1029.3
20260508110235 3 50 0.0 0.0 0.00 0.00 0.00 92 1029.5
20260508105730 3 57 0.0 0.0 0.00 0.00 0.00 93 1029.4
20260508105227 3 57 0.0 0.0 0.00 0.00 0.00 92 1029.6
20260508104724 3 57 0.0 0.0 0.00 0.00 0.00 92 1029.6
20260508104221 3 54 0.0 0.0 0.00 0.00 0.00 92 1029.4
20260508103719 3 53 0.0 0.0 0.00 0.00 0.00 92 1029.4
20260508103215 3 33 0.0 0.0 0.00 0.00 0.00 92 1029.6
20260508102712 3 53 0.0 0.0 0.00 0.00 0.00 92 1029.4
20260508102210 3 20 0.0 0.0 0.00 0.00 0.00 93 1029.4
20260508101707 3 69 0.0 0.0 0.00 0.00 0.00 93 1029.6
20260508101205 3 71 0.0 0.0 0.00 0.00 0.00 93 1029.4
20260508100702 2 99 0.0 0.0 0.00 0.00 0.00 93 1029.5
20260508100200 2 82 0.0 0.0 0.00 0.00 0.00 94 1029.5
20260508095656 2 99 0.0 0.0 0.00 0.00 0.00 94 1029.9
20260508095154 2 112 0.0 0.0 0.00 0.00 0.00 94 1029.6
20260508094650 2 149 0.0 1.6 0.00 0.00 0.00 93 1030.0
20260508094147 2 121 1.6 1.6 0.00 0.00 0.00 93 1030.1
20260508093644 3 149 1.6 3.2 0.00 0.00 0.00 93 1029.9
20260508093142 3 84 1.6 1.6 0.00 0.00 0.00 92 1029.9
20260508092639 3 63 0.0 0.0 0.00 0.00 0.00 92 1029.9
20260508092138 3 46 0.0 0.0 0.00 0.00 0.00 93 1029.9
20260508091634 3 114 0.0 0.0 0.00 0.00 0.00 93 1030.1